EW9092 Weather Reports


Display with metric or nautical units.
time (UTC)temp
F
wind
direction
speed
MPH
gust
MPH
rain 1hr
in
rain 24hr
in
rain mn
in
humidity
%
barometer
mb
20260505130225 58 338 0.0 0.0 0.00 0.50 0.23 91 1012.2
20260505124724 58 256 0.0 0.0 0.00 0.50 0.23 91 1012.1
20260505124228 58 256 0.0 0.0 0.00 0.50 0.23 91 1012.1
20260505123510 58 256 0.0 0.0 0.01 0.50 0.23 90 1012.1
20260505123011 58 140 0.0 2.0 0.01 0.50 0.23 90 1011.9
20260505122511 58 140 0.0 2.0 0.01 0.50 0.23 90 1011.5
20260505122010 58 145 0.0 1.0 0.01 0.50 0.23 91 1011.9
20260505121738 58 349 0.0 0.0 0.01 0.50 0.23 90 1011.9
20260505121010 58 349 0.0 0.0 0.02 0.50 0.23 90 1011.6
20260505120508 58 349 0.0 0.0 0.02 0.50 0.23 90 1011.5
20260505120449 58 349 0.0 0.0 0.02 0.50 0.23 90 1011.5
20260505115504 58 349 0.0 0.0 0.03 0.50 0.23 90 1011.4
20260505115007 58 349 0.0 0.0 0.03 0.50 0.23 90 1011.6
20260505114502 58 349 0.0 0.0 0.03 0.50 0.23 90 1011.5
20260505114001 58 347 0.0 0.0 0.03 0.49 0.22 90 1011.5
20260505113502 58 334 0.0 0.0 0.03 0.49 0.22 90 1011.4
20260505113002 58 300 0.0 0.0 0.03 0.49 0.22 90 1011.9
20260505112729 58 300 0.0 0.0 0.04 0.49 0.22 90 1012.2
20260505111959 58 300 0.0 0.0 0.04 0.49 0.22 90 1012.0
20260505111502 58 300 0.0 0.0 0.05 0.49 0.22 90 1011.8
20260505110952 58 300 0.0 0.0 0.04 0.48 0.21 89 1011.9
20260505110446 58 300 0.0 0.0 0.04 0.48 0.21 89 1012.1
20260505102054 58 345 1.0 3.0 0.04 0.45 0.18 89 1012.8
20260505101334 58 335 0.0 2.0 0.03 0.44 0.17 88 1012.8
20260505100823 58 257 0.0 0.0 0.04 0.44 0.17 87 1012.8
20260505100318 58 257 0.0 0.0 0.04 0.44 0.17 86 1012.9
20260505100041 58 245 0.0 2.0 0.05 0.44 0.17 87 1013.1
20260505094756 58 147 1.0 3.0 0.06 0.44 0.17 88 1012.9
20260505094250 58 140 1.0 4.0 0.06 0.44 0.17 87 1013.1
20260505093739 58 77 1.0 4.0 0.07 0.44 0.17 88 1013.2
20260505093233 58 59 1.0 4.0 0.06 0.43 0.16 88 1013.3
20260505092728 58 128 1.0 5.0 0.06 0.42 0.15 88 1013.8
20260505092218 58 126 2.0 5.0 0.06 0.42 0.15 88 1013.6
20260505091710 58 97 2.0 5.0 0.05 0.41 0.14 88 1013.6
20260505091206 58 105 2.0 5.0 0.06 0.41 0.14 88 1013.7
20260505090925 58 143 2.0 5.0 0.05 0.40 0.13 89 1013.8
20260505090148 58 96 1.0 4.0 0.06 0.40 0.13 89 1014.0
20260505085907 58 89 2.0 6.0 0.06 0.39 0.12 89 1014.2
20260505085129 58 94 2.0 6.0 0.06 0.39 0.12 89 1014.4
20260505084624 58 82 2.0 4.0 0.06 0.38 0.11 89 1014.4
20260505084117 58 79 2.0 3.0 0.07 0.38 0.11 89 1014.7
20260505083608 58 74 1.0 3.0 0.07 0.37 0.10 88 1014.8
20260505083101 58 96 1.0 4.0 0.07 0.37 0.10 88 1015.0
20260505082556 58 96 1.0 4.0 0.07 0.36 0.09 88 1015.1
20260505082046 59 109 1.0 4.0 0.07 0.36 0.09 88 1015.2
20260505081540 59 98 1.0 3.0 0.07 0.35 0.09 88 1015.2
20260505081034 59 103 0.0 3.0 0.08 0.35 0.08 88 1015.3
20260505080528 59 100 0.0 0.0 0.07 0.34 0.08 87 1015.4
20260505080022 59 100 0.0 2.0 0.07 0.34 0.07 87 1015.7
20260505075516 59 91 0.0 2.0 0.06 0.33 0.06 87 1015.7
20260505075006 59 89 0.0 2.0 0.07 0.33 0.06 88 1015.7
20260505074500 59 89 0.0 2.0 0.06 0.32 0.05 87 1015.8
20260505073954 59 84 0.0 2.0 0.05 0.31 0.04 87 1016.0
20260505073444 59 84 0.0 2.0 0.05 0.30 0.03 88 1015.9
20260505072938 59 74 0.0 1.0 0.06 0.30 0.03 88 1015.9
20260505072701 59 74 0.0 2.0 0.05 0.29 0.02 87 1015.7
20260505072152 59 74 0.0 2.0 0.05 0.28 0.02 88 1015.7
20260505071416 59 74 0.0 0.0 0.05 0.28 0.01 88 1015.7
20260505070910 59 74 0.0 0.0 0.04 0.27 0.00 88 1015.8
20260505070618 59 74 0.0 2.0 0.05 0.27 0.00 88 1015.8
20260505065854 59 74 0.0 2.0 0.06 0.27 0.27 87 1015.5
20260505065348 59 74 0.0 0.0 0.06 0.27 0.27 87 1015.4
20260505064837 59 74 0.0 1.0 0.05 0.26 0.26 88 1015.4
20260505064333 59 74 0.0 1.0 0.05 0.26 0.26 87 1015.4
20260505063826 59 18 0.0 1.0 0.04 0.25 0.25 87 1015.4
20260505063317 59 18 0.0 3.0 0.04 0.25 0.25 88 1015.4
20260505062810 59 18 1.0 4.0 0.04 0.24 0.24 87 1015.4
20260505062305 59 20 1.0 4.0 0.04 0.24 0.24 85 1015.4
20260505061753 60 18 0.0 4.0 0.03 0.23 0.23 84 1015.5
20260505061248 60 77 0.0 0.0 0.03 0.23 0.23 83 1015.5
20260505061008 60 77 0.0 0.0 0.02 0.22 0.23 83 1015.5
20260505060239 60 77 0.0 0.0 0.02 0.22 0.22 83 1015.5
20260505055738 60 77 0.0 0.0 0.01 0.21 0.21 82 1015.4
20260505055237 60 77 0.0 0.0 0.02 0.21 0.21 82 1015.3
20260505054734 60 84 0.0 0.0 0.02 0.21 0.21 82 1015.1
20260505054233 60 84 0.0 2.0 0.02 0.21 0.21 82 1015.1
20260505053735 60 84 1.0 3.0 0.02 0.21 0.21 82 1015.1
20260505053231 60 89 0.0 3.0 0.02 0.21 0.21 82 1015.3
20260505052730 59 131 0.0 3.0 0.01 0.20 0.20 83 1015.4
20260505052228 59 131 0.0 3.0 0.01 0.20 0.20 83 1015.5
20260505051732 60 127 0.0 2.0 0.01 0.20 0.20 82 1015.5
20260505051228 60 86 0.0 2.0 0.01 0.20 0.20 82 1015.7
20260505050955 60 86 0.0 2.0 0.01 0.20 0.20 81 1015.4
20260505050224 60 92 1.0 2.0 0.01 0.20 0.20 81 1015.5
20260505041713 59 224 0.0 2.0 0.00 0.19 0.19 76 1015.3
20260505041216 59 224 0.0 3.0 0.01 0.19 0.19 79 1015.3
20260505040712 59 60 0.0 4.0 0.01 0.19 0.19 78 1015.3
20260505040210 58 21 0.0 4.0 0.01 0.19 0.19 78 1015.3
20260505035708 58 64 0.0 3.0 0.02 0.19 0.19 79 1015.1
20260505035205 58 74 1.0 4.0 0.02 0.19 0.19 79 1015.0
20260505034707 58 74 1.0 5.0 0.03 0.19 0.19 79 1014.8
20260505034205 58 74 2.0 5.0 0.04 0.19 0.19 80 1014.7
20260505033757 58 86 3.0 7.0 0.05 0.19 0.19 79 1014.8
20260505032704 58 103 2.0 7.0 0.06 0.19 0.19 80 1014.8
20260505032206 58 84 3.0 10.0 0.07 0.19 0.19 82 1014.6
20260505031921 58 46 3.0 10.0 0.06 0.18 0.18 82 1014.5
20260505031201 58 22 3.0 7.0 0.06 0.18 0.18 81 1014.7
20260505031147 58 34 3.0 7.0 0.06 0.18 0.18 80 1015.0
20260505030202 59 18 3.0 8.0 0.07 0.18 0.18 80 1015.4
20260505025703 59 19 3.0 8.0 0.06 0.17 0.17 79 1015.5
20260505025428 59 10 2.0 6.0 0.06 0.17 0.17 80 1015.5
20260505024703 60 28 1.0 4.0 0.07 0.16 0.16 78 1015.7
20260505024204 60 31 1.0 2.0 0.07 0.15 0.15 79 1015.5
20260505023703 60 12 1.0 3.0 0.08 0.14 0.14 75 1015.7
20260505023420 60 24 2.0 5.0 0.08 0.13 0.13 77 1015.8
20260505022701 60 15 2.0 5.0 0.08 0.13 0.13 76 1015.7
20260505022418 61 46 1.0 5.0 0.07 0.12 0.12 78 1015.5
20260505021702 61 1 1.0 5.0 0.08 0.12 0.12 76 1015.7
20260505021202 61 68 1.0 4.0 0.08 0.12 0.12 76 1015.4
20260505020703 61 92 0.0 4.0 0.08 0.12 0.12 67 1015.5
20260505020428 60 77 1.0 4.0 0.08 0.11 0.11 77 1015.4
20260505015659 61 150 2.0 8.0 0.08 0.11 0.11 78 1015.5
20260505015419 61 347 4.0 8.0 0.09 0.11 0.11 76 1015.1
20260505014658 61 24 4.0 8.0 0.07 0.09 0.10 75 1015.0
20260505014652 62 345 3.0 7.0 0.07 0.08 0.09 73 1015.1
20260505013658 63 13 2.0 7.0 0.05 0.06 0.07 71 1015.1
20260505013515 63 357 1.0 3.0 0.05 0.05 0.05 70 1015.1
20260505012158 63 343 3.0 7.0 0.05 0.05 0.05 68 1014.5
20260505012136 63 347 4.0 7.0 0.04 0.04 0.04 70 1014.2
20260505011158 63 4 4.0 7.0 0.04 0.04 0.04 69 1014.0
20260505010702 64 25 4.0 8.0 0.04 0.04 0.04 68 1013.8
20260505010201 64 6 4.0 8.0 0.03 0.03 0.03 65 1013.9
20260505005700 65 355 2.0 5.0 0.03 0.03 0.03 64 1014.1
20260505005423 65 11 1.0 3.0 0.02 0.02 0.03 60 1014.1
20260505004700 66 352 0.0 3.0 0.02 0.02 0.02 55 1014.2
20260505004201 66 308 1.0 4.0 0.01 0.01 0.01 55 1014.5
20260505003700 66 308 1.0 4.0 0.01 0.01 0.01 52 1014.5
20260505003200 67 354 2.0 4.0 0.00 0.00 0.00 51 1014.4
20260505002932 67 351 2.0 5.0 0.00 0.00 0.00 51 1014.5
20260505002203 67 330 2.0 5.0 0.00 0.00 0.00 48 1014.2
20260505001704 68 292 5.0 12.0 0.00 0.00 0.00 48 1014.1
20260505001159 68 334 6.0 12.0 0.00 0.00 0.00 47 1013.8
20260505000657 69 30 6.0 14.0 0.00 0.00 0.00 44 1013.7
20260505000156 70 353 6.0 14.0 0.00 0.00 0.00 39 1013.7
20260504235655 71 342 4.0 14.0 0.00 0.00 0.00 35 1013.6
20260504235154 72 250 5.0 13.0 0.00 0.00 0.00 32 1013.4
20260504234649 73 324 6.0 12.0 0.00 0.00 0.00 30 1013.4
20260504234146 73 292 6.0 14.0 0.00 0.00 0.00 30 1013.4
20260504233647 73 279 8.0 14.0 0.00 0.00 0.00 29 1013.4
20260504233145 74 291 9.0 20.0 0.00 0.00 0.00 28 1013.6
20260504232646 74 286 10.0 20.0 0.00 0.00 0.00 28 1013.6
20260504232146 75 274 10.0 18.0 0.00 0.00 0.00 26 1013.7
20260504231645 76 287 9.0 18.0 0.00 0.00 0.00 24 1013.7
20260504231146 76 276 10.0 18.0 0.00 0.00 0.00 25 1013.6
20260504230645 76 273 10.0 18.0 0.00 0.00 0.00 25 1013.3
20260504230143 77 257 9.0 18.0 0.00 0.00 0.00 24 1013.2
20260504225643 78 290 7.0 16.0 0.00 0.00 0.00 21 1012.9
20260504225146 78 269 5.0 16.0 0.00 0.00 0.00 20 1012.8
20260504224647 78 285 6.0 13.0 0.00 0.00 0.00 20 1012.7
20260504224147 78 247 6.0 18.0 0.00 0.00 0.00 20 1012.8
20260504223646 78 356 6.0 18.0 0.00 0.00 0.00 20 1012.9
20260504223141 79 263 6.0 13.0 0.00 0.00 0.00 20 1012.9
20260504222635 79 291 6.0 15.0 0.00 0.00 0.00 19 1012.9
20260504222125 79 282 7.0 15.0 0.00 0.00 0.00 19 1012.8
20260504221619 79 273 7.0 14.0 0.00 0.00 0.00 19 1013.2
20260504221113 80 274 6.0 13.0 0.00 0.00 0.00 19 1013.1
20260504220604 80 283 5.0 14.0 0.00 0.00 0.00 19 1013.1
20260504220054 80 252 6.0 14.0 0.00 0.00 0.00 19 1013.2
20260504215549 81 278 5.0 13.0 0.00 0.00 0.00 19 1013.2
20260504215038 81 339 6.0 15.0 0.00 0.00 0.00 18 1013.2
20260504214532 81 285 7.0 15.0 0.00 0.00 0.00 18 1012.9
20260504214025 82 285 7.0 14.0 0.00 0.00 0.00 17 1012.8
20260504213513 81 259 6.0 12.0 0.00 0.00 0.00 18 1012.8
20260504213009 81 221 7.0 15.0 0.00 0.00 0.00 17 1012.8
20260504212720 81 240 7.0 13.0 0.00 0.00 0.00 17 1012.8
20260504212216 82 297 5.0 13.0 0.00 0.00 0.00 17 1012.9
20260504211446 82 283 5.0 9.0 0.00 0.00 0.00 17 1012.8
20260504210941 82 281 3.0 7.0 0.00 0.00 0.00 16 1012.9
20260504210431 82 263 3.0 6.0 0.00 0.00 0.00 17 1013.2
20260504205924 82 287 3.0 6.0 0.00 0.00 0.00 16 1013.3
20260504205419 82 260 2.0 5.0 0.00 0.00 0.00 17 1013.3
20260504205135 82 221 3.0 9.0 0.00 0.00 0.00 17 1013.2
20260504204401 82 117 3.0 9.0 0.00 0.00 0.00 17 1013.3
20260504203857 82 240 4.0 9.0 0.00 0.00 0.00 18 1013.3
20260504203347 82 213 4.0 9.0 0.00 0.00 0.00 17 1013.4
20260504202841 82 217 3.0 7.0 0.00 0.00 0.00 18 1013.4
20260504202335 81 225 3.0 9.0 0.00 0.00 0.00 18 1013.5
20260504201824 82 249 3.0 9.0 0.00 0.00 0.00 18 1013.5
20260504201319 82 266 3.0 9.0 0.00 0.00 0.00 18 1013.6
20260504200813 82 251 3.0 9.0 0.00 0.00 0.00 19 1013.6
20260504200303 81 330 2.0 7.0 0.00 0.00 0.00 19 1013.6
20260504195801 81 290 2.0 6.0 0.00 0.00 0.00 19 1013.5
20260504195259 81 276 4.0 8.0 0.00 0.00 0.00 19 1013.4
20260504194801 80 281 4.0 10.0 0.00 0.00 0.00 19 1013.4
20260504194257 80 215 4.0 10.0 0.00 0.00 0.00 19 1013.4
20260504193756 80 337 3.0 13.0 0.00 0.00 0.00 20 1013.4
20260504193257 80 267 4.0 13.0 0.00 0.00 0.00 20 1013.5
20260504192755 80 277 2.0 7.0 0.00 0.00 0.00 20 1013.5
20260504192255 81 278 2.0 7.0 0.00 0.00 0.00 19 1013.6
20260504191758 81 88 2.0 6.0 0.00 0.00 0.00 19 1013.6
20260504191255 80 210 2.0 5.0 0.00 0.00 0.00 21 1013.7
20260504191014 80 220 2.0 5.0 0.00 0.00 0.00 21 1013.7
20260504190254 80 208 1.0 5.0 0.00 0.00 0.00 21 1013.7
20260504185753 79 253 1.0 3.0 0.00 0.00 0.00 23 1013.7
20260504185254 79 243 2.0 5.0 0.00 0.00 0.00 23 1013.8
20260504184750 79 269 3.0 7.0 0.00 0.00 0.00 22 1014.0
20260504184518 79 281 2.0 7.0 0.00 0.00 0.00 23 1014.1
20260504183743 79 240 1.0 4.0 0.00 0.00 0.00 22 1014.2
20260504183243 78 252 2.0 7.0 0.00 0.00 0.00 23 1014.2
20260504182746 78 281 2.0 7.0 0.00 0.00 0.00 23 1014.2
20260504182244 79 285 2.0 7.0 0.00 0.00 0.00 23 1014.5
20260504181743 78 235 2.0 8.0 0.00 0.00 0.00 24 1014.5
20260504181243 78 112 3.0 8.0 0.00 0.00 0.00 24 1014.6
20260504180743 78 146 3.0 8.0 0.00 0.00 0.00 24 1014.7
20260504180502 77 241 3.0 7.0 0.00 0.00 0.00 24 1014.6
20260504175743 77 231 3.0 7.0 0.00 0.00 0.00 24 1014.5
20260504175243 77 231 4.0 10.0 0.00 0.00 0.00 24 1014.6
20260504174745 77 233 5.0 13.0 0.00 0.00 0.00 24 1014.6
20260504174243 77 249 4.0 13.0 0.00 0.00 0.00 24 1014.7
20260504173743 76 213 4.0 9.0 0.00 0.00 0.00 25 1014.7
20260504173244 76 223 4.0 8.0 0.00 0.00 0.00 25 1014.6
20260504173002 76 271 4.0 9.0 0.00 0.00 0.00 24 1014.6
20260504172242 76 271 4.0 12.0 0.00 0.00 0.00 25 1014.7
20260504172004 76 216 5.0 12.0 0.00 0.00 0.00 25 1014.6
20260504171241 76 271 6.0 12.0 0.00 0.00 0.00 25 1014.6
20260504170741 76 252 7.0 16.0 0.00 0.00 0.00 25 1014.5
20260504170240 76 188 7.0 16.0 0.00 0.00 0.00 24 1014.6
20260504160227 76 197 5.0 10.0 0.00 0.00 0.00 27 1014.7
20260504150225 74 242 3.0 7.0 0.00 0.00 0.00 31 1014.6
20260504141222 72 202 1.0 4.0 0.00 0.00 0.00 32 1014.2
20260504140722 71 260 1.0 3.0 0.00 0.00 0.00 33 1014.2
20260504140221 71 268 1.0 5.0 0.00 0.00 0.00 33 1014.4